Regional Weather Roundup
Issued by NWS

Home | Current Version | Previous Version | Text Only | Print | Product List | Glossary On
Versions: 1 2 3 4 5 6 7 8 9 10 11 12 13 14 15 16 17 18 19 20 21 22 23 24 25 26 27 28 29 30 31 32 33 34 35 36 37 38 39 40 41 42 43 44 45 46 47 48 49 50
000
ASUS42 KTBW 190210
RWRFL
FLORIDA REGIONAL WEATHER ROUNDUP
NATIONAL WEATHER SERVICE TAMPA BAY RUSKIN FL
1000 PM EDT THU SEP 18 2014

NOTE: "FAIR" INDICATES FEW OR NO CLOUDS BELOW 12,000 FEET WITH NO
SIGNIFICANT WEATHER AND/OR OBSTRUCTIONS TO VISIBILITY.


FLZ001>010-012>015-112-114-115-190300-
PANHANDLE FLORIDA

CITY           SKY/WX    TMP DP  RH WIND       PRES   REMARKS
PENSACOLA      CLOUDY    76  74  93 N5        29.92R
PENSACOLA NAS  CLOUDY    79  74  84 N5        29.91S
MILTON NAS     CLOUDY    76  72  87 CALM      29.94R
CRESTVIEW      CLOUDY    77  73  87 CALM      29.95R
DUKE FIELD     MOCLDY    79  79  99 VRB1      29.94R
VALPARAISO     CLOUDY    80  74  84 CALM      29.94R
MARY ESTHER    CLOUDY    79  72  80 N5        29.93R
TRI COUNTY     FAIR      72  71  97 CALM      29.95R
PANAMA CITY    FAIR      76  72  87 CALM      29.92R
TYNDALL AFB    CLOUDY    78  75  89 CALM      29.93R
APALACHICOLA   CLOUDY    78  71  79 N5        29.92R

STATION/POSITION SKY/WX   TEMP    WIND        PRES    WAVE   SWELL
                          AIR SEA DIR/SP/G            HT/PER HT/PER
                          (F)     (DEG/KT/KT) (MB)    (FT/S) (FT/S)
30.1N   87.6W              83 86   CALM  /  2 1013.4R   1
29.2N   88.2W              83 85  120/  4/  4 1013.6R   1
28.8N   86.0W              83 86  140/  4/  4 1013.0R   1
PANAMA CITY BEAC           80 87   10/  4/  5 1013.4R
CAPE SAN BLAS    NOT AVBL
TOWER C                    82     340/  5/  7 1013.2R
28.5N   84.5W              83 85  100/  2/  4 1013.1R   1

$$
FLZ011-016>038-118-127-128-134-139-239-190300-
NORTH FLORIDA

CITY           SKY/WX    TMP DP  RH WIND       PRES   REMARKS
MARIANNA       MOCLDY    74  71  91 CALM      29.94R
TALLAHASSEE    PTCLDY    77  71  82 CALM      29.94R
PERRY          MOCLDY    75  75 100 CALM      29.95R
CROSS CITY       N/A     76  74  93 CALM      29.93R
LAKE CITY      FAIR      77  72  83 E3        29.94R
GAINESVILLE    MOCLDY    74  69  85 SE5       29.96R
MAYPORT NAS    CLOUDY    82  72  71 SE10      29.95R
JACKSONVILLE   CLOUDY    78  75  90 S3        29.95R
JAX NAS        CLOUDY    83  72  69 S10       29.95R
JAX CRAIG      CLOUDY    80  73  79 S3        29.95R
JAX CECIL      CLOUDY    77  72  83 CALM      29.96R
ST AUGUSTINE   CLOUDY    79  74  84 SW5       29.96R

STATION/POSITION SKY/WX   TEMP    WIND        PRES    WAVE   SWELL
                          AIR SEA DIR/SP/G            HT/PER HT/PER
                          (F)     (DEG/KT/KT) (MB)    (FT/S) (FT/S)
SHELL POINT                82     280/  3/  5   N/A
KEATON BEACH               80      CALM  /  1 1013.8R
CEDAR KEY                  81      30/  4/  5 1014.0R
FERNANDINA                 81 84  140/  3/  5 1013.6R
30.7N   81.3W                 85                N/A     2/13   2/13
MAYPORT                    82 84  160/  4/  7   N/A
31.4N   80.9W              82 84  130/ 10/ 12 1014.3R   2/12   2/12
ST AUGUSTINE               82     160/ 11/ 12 1014.9R

$$
FLZ040-043>046-052-053-057-058-063-144-190300-
INTERIOR CENTRAL FLORIDA

CITY           SKY/WX    TMP DP  RH WIND       PRES   REMARKS
OCALA          PTCLDY    75  66  73 E3        29.97R
THE VILLAGES     N/A     75  73  94 CALM      29.87R FOG
LEESBURG       CLOUDY    77  71  82 N8        29.97R
SANFORD        MOCLDY    79  73  82 CALM      29.95R
ORLANDO EXEC   CLOUDY    79  74  84 CALM      29.95R
ORLANDO INTL   CLOUDY    78  77  96 CALM      29.95R
KISSIMMEE      CLOUDY    77  75  94 CALM      29.96R
WINTER HAVEN   MOCLDY    76  70  82 N10       29.97R
LAKELAND       MOCLDY    79  68  69 NE9       29.95
BARTOW         FAIR      79  70  73 N8        29.96R
OKEECHOBEE       N/A     73  72  94 MISG      29.94R

$$
FLZ041-047-054-059-064-141-147-190300-
EAST CENTRAL FLORIDA

CITY           SKY/WX    TMP DP  RH WIND       PRES   REMARKS
DAYTONA BEACH  CLOUDY    81  72  74 E3        29.96R
DELAND         CLOUDY    77  72  83 CALM      29.97R
NEW SMYRNA BEA PTCLDY    81  72  74 E6        29.95R
JFK SPACE CTR  MOCLDY    79  73  81 E5        29.94R
CAPE CANAVERAL MOCLDY    80  72  75 E5        29.93R
PATRICK AFB    CLOUDY    82  73  73 SE10      29.94R
MELBOURNE      CLOUDY    83  72  69 E9        29.93R
VERO BEACH     CLOUDY    78  71  79 E5        29.93R
FT PIERCE      MOCLDY   N/A N/A N/A E6        29.93R
STUART         MOCLDY    79  72  78 CALM      29.94S

STATION/POSITION SKY/WX   TEMP    WIND        PRES    WAVE   SWELL
                          AIR SEA DIR/SP/G            HT/PER HT/PER
                          (F)     (DEG/KT/KT) (MB)    (FT/S) (FT/S)
28.5N   80.2W              83 85  100/ 12/ 14 1013.6R
28.9N   78.5W              83 85   80/  8/ 12 1014.2R   4/12   3/12
TRIDENT PIER               81 85   90/  6/ 10 1013.3R
28.4N   80.5W                 84                N/A     2/10   2/11
27.6N   80.2W                 84                N/A     3/13   2/13

$$
FLZ050-056-061-142-242-148-248-149-249-151-251-155-255-
160-260-190300-
WEST CENTRAL FLORIDA

CITY           SKY/WX    TMP DP  RH WIND       PRES   REMARKS
CRYSTAL RIVER  FAIR      75  70  83 E6        29.95R
INVERNESS      CLOUDY    77  64  65 NE7       29.96R
BROOKSVILLE    MOCLDY    76  71  85 E3        29.95R
ZEPHYRHILLS    MOCLDY    75  70  83 NE5       29.96R
CLEARWATER     PTCLDY    82  73  74 N6        29.93R
TAMPA INTL     MOCLDY    82  72  71 N5        29.94R
TAMPA EXEC     MOCLDY    81  73  78 CALM      29.95R
PLANT CITY     MOCLDY    81  72  74 NE6       29.96R
MACDILL AFB    PTCLDY    80  75  85 NE6       29.94R
ST PETERSBURG  PTCLDY    82  73  74 N5        29.92R
SARASOTA       PTCLDY    79  73  82 N5        29.91R
VENICE           N/A    N/A N/A N/A MISG        N/A

STATION/POSITION SKY/WX   TEMP    WIND        PRES    WAVE   SWELL
                          AIR SEA DIR/SP/G            HT/PER HT/PER
                          (F)     (DEG/KT/KT) (MB)    (FT/S) (FT/S)
CEDAR KEY                  81      30/  4/  5 1014.0R
28.5N   84.5W              83 85  100/  2/  4 1013.1R   1
27.3N   84.3W                 85                N/A     1/ 3
CLEARWATER BEACH NOT AVBL
MIDDLE TAMPA BAY           83     360/  8/ 11 1013.7R
VENICE                     83 87  360/  6/  7 1012.9R

$$
FLZ066-069-070-075>078-162-262-165-265-190300-
SOUTHWEST FLORIDA AND KEYS

CITY           SKY/WX    TMP DP  RH WIND       PRES   REMARKS
PUNTA GORDA    MOCLDY    82  74  76 CALM      29.93R
FT MYERS       MOCLDY    79  74  84 SE3       29.92R
SOUTHWEST INTL MOCLDY    77  66  68 SE3       29.93R
NAPLES         CLEAR     83  74  74 CALM      29.92R
MARCO ISLAND   CLOUDY    81  75  83 CALM      29.92R
MARATHON       PTCLDY    79  74  84 CALM      29.94R
KEY WEST NAS   PTCLDY    79  75  87 CALM      29.94R
KEY WEST INTL  PTCLDY    81  75  82 CALM      29.94R

STATION/POSITION SKY/WX   TEMP    WIND        PRES    WAVE   SWELL
                          AIR SEA DIR/SP/G            HT/PER HT/PER
                          (F)     (DEG/KT/KT) (MB)    (FT/S) (FT/S)
VENICE                     83 87  360/  6/  7 1012.9R
NAPLES                     83 90  250/  5/  6 1013.5R
DRY TORTUGAS               82     300/  5/  6 1013.4R
NW FL BAY                  84     260/  8/  9 1013.3R
SAND KEY                   83     280/  5/  6 1013.8R
SOMBRERO KEY               82     200/  3/  3 1014.7R
LONG KEY                   82 86  200/  3/  4 1014.6R
MOLASSES REEF              82 85  210/  4/  5 1013.8R

$$
FLZ067-068-071>074-168-172>174-190300-
SOUTHEAST FLORIDA

CITY           SKY/WX    TMP DP  RH WIND       PRES   REMARKS
W PALM BEACH   PTCLDY    79  74  84 CALM      29.92R
FT LAUDER-EXEC PTCLDY    77  76  96 CALM      29.92R THUNDER
FT LAUDERDALE  MOCLDY    79  75  87 CALM      29.92S
POMPANO BEACH  PTCLDY    78  74  87 SW5       29.92S
PEMBROKE PINES MOCLDY    78  75  90 CALM      29.94R
OPA LOCKA      MOCLDY    80  73  79 NE3       29.93R
MIAMI          MOCLDY    82  73  74 S7        29.93R
WEST KENDALL   PTCLDY    81  73  76 SW5       29.93S
HOMESTEAD      PTCLDY    77  74  88 S2        29.93S

STATION/POSITION SKY/WX   TEMP    WIND        PRES    WAVE   SWELL
                          AIR SEA DIR/SP/G            HT/PER HT/PER
                          (F)     (DEG/KT/KT) (MB)    (FT/S) (FT/S)
PORT EVERGLADES            77     200/  2/  3 1013.2
VIRGINIA KEY               83 86  240/  8/ 10   N/A
LAKE WORTH                 81 85  160/  4/  4 1013.1R
FOWEY ROCKS                83 85  230/ 10/ 11 1013.8R
SETTLEMENT POINT           81     160/  2/  2 1014.1R

$$



USA.gov is the U.S. government's official web portal to all federal, state and local government web resources and services.